QPF
0.00 0.00 0.00 0.00 0.00 0.00 0.00 0.00 0.00 0.00 0.00 0.00 0.00 0.00 0.00 0.00 0.00 0.00 0.00 0.00 0.00 0.00 0.00 0.00 0.00 0.00 0.00 0.00 0.00 0.00 0.00 0.00 0.00 0.00 0.01 0.01 0.02 0.03 0.03 0.01 0.00 0.01 0.05 0.05
0.00 0.00 0.00 0.00 0.00 0.00 0.00 0.00 0.00 0.00 0.00 0.00 0.00 0.00 0.00 0.00 0.00 0.00 0.00 0.00 0.00 0.00 0.00 0.00 0.00 0.00 0.00 0.00 0.00 0.00 0.00 0.00 0.00 0.00 0.00 0.01 0.02 0.03 0.03 0.01 0.01 0.00 0.00 0.01
0.00 0.00 0.00 0.00 0.00 0.00 0.00 0.00 0.00 0.00 0.00 0.00 0.00 0.00 0.00 0.00 0.00 0.00 0.00 0.00 0.00 0.00 0.00 0.00 0.00 0.00 0.00 0.00 0.00 0.00 0.00 0.00 0.00 0.00 0.00 0.01 0.01 0.01 0.01 0.02 0.01 0.01 0.00 0.00
0.00 0.02 0.00 0.00 0.00 0.00 0.00 0.00 0.00 0.00 0.00 0.00 0.00 0.00 0.00 0.00 0.00 0.00 0.00 0.00 0.00 0.00 0.00 0.00 0.00 0.00 0.00 0.00 0.00 0.00 0.00 0.00 0.00 0.00 0.00 0.00 0.00 0.00 0.00 0.01 0.00 0.00 0.00 0.00
0.00 0.01 0.01 0.01 0.02 0.00 0.00 0.00 0.00 0.00 0.00 0.00 0.00 0.00 0.00 0.00 0.00 0.00 0.00 0.00 0.00 0.00 0.00 0.00 0.00 0.00 0.00 0.00 0.00 0.00 0.00 0.00 0.00 0.00 0.01 0.01 0.00 0.00 0.00 0.00 0.00 0.00 0.00 0.00
0.01 0.01 0.00 0.01 0.01 0.00 0.00 0.00 0.00 0.00 0.00 0.00 0.00 0.00 0.00 0.00 0.00 0.00 0.00 0.00 0.00 0.00 0.00 0.00 0.00 0.00 0.00 0.00 0.00 0.00 0.00 0.00 0.00 0.00 0.01 0.02 0.01 0.00 0.00 0.00 0.00 0.00 0.00 0.00
0.01 0.02 0.01 0.00 0.00 0.00 0.00 0.01 0.00 0.00 0.00 0.00 0.00 0.00 0.00 0.00 0.00 0.00 0.00 0.00 0.00 0.00 0.00 0.00 0.00 0.00 0.00 0.00 0.00 0.00 0.00 0.00 0.00 0.00 0.00 0.00 0.00 0.00 0.00 0.00 0.00 0.00 0.00 0.00
0.04 0.03 0.01 0.01 0.04 0.04 0.02 0.01 0.01 0.00 0.00 0.00 0.00 0.00 0.00 0.00 0.00 0.00 0.00 0.00 0.00 0.00 0.00 0.00 0.00 0.00 0.00 0.00 0.00 0.00 0.00 0.00 0.00 0.00 0.00 0.00 0.00 0.00 0.00 0.00 0.00 0.00 0.00 0.00
0.02 0.01 0.01 0.01 0.01 0.02 0.01 0.01 0.01 0.02 0.00 0.00 0.00 0.00 0.00 0.00 0.00 0.00 0.00 0.00 0.00 0.00 0.00 0.00 0.00 0.00 0.00 0.00 0.00 0.00 0.00 0.00 0.00 0.00 0.00 0.00 0.00 0.00 0.00 0.00 0.00 0.00 0.00 0.00
0.00 0.00 0.00 0.00 0.00 0.00 0.00 0.00 0.01 0.02 0.00 0.00 0.00 0.00 0.00 0.00 0.00 0.00 0.00 0.00 0.00 0.00 0.00 0.00 0.00 0.00 0.01 0.00 0.00 0.00 0.00 0.00 0.00 0.00 0.00 0.00 0.00 0.00 0.00 0.00 0.00 0.00 0.00 0.00
0.00 0.00 0.00 0.00 0.00 0.00 0.00 0.00 0.00 0.00 0.00 0.00 0.00 0.00 0.00 0.00 0.00 0.00 0.00 0.01 0.01 0.02 0.03 0.02 0.01 0.01 0.00 0.00 0.00 0.00 0.00 0.00 0.00 0.00 0.00 0.00 0.00 0.00 0.00 0.00 0.00 0.00 0.00 0.00
0.00 0.00 0.00 0.00 0.00 0.00 0.00 0.00 0.00 0.00 0.00 0.00 0.00 0.00 0.00 0.00 0.00 0.00 0.00 0.00 0.01 0.02 0.02 0.00 0.00 0.00 0.00 0.00 0.00 0.00 0.00 0.00 0.00 0.00 0.00 0.00 0.00 0.00 0.00 0.00 0.00 0.00 0.00 0.00
0.00 0.00 0.00 0.00 0.00 0.00 0.00 0.00 0.00 0.00 0.00 0.00 0.00 0.00 0.00 0.00 0.00 0.00 0.00 0.00 0.00 0.00 0.00 0.00 0.00 0.00 0.00 0.00 0.00 0.00 0.00 0.00 0.00 0.00 0.00 0.00 0.00 0.00 0.00 0.00 0.00 0.00 0.00 0.00
0.00 0.00 0.00 0.00 0.00 0.00 0.00 0.00 0.00 0.00 0.00 0.00 0.00 0.00 0.00 0.00 0.00 0.00 0.00 0.00 0.00 0.00 0.00 0.00 0.00 0.00 0.00 0.00 0.00 0.00 0.00 0.00 0.00 0.00 0.00 0.00 0.00 0.00 0.00 0.00 0.00 0.00 0.00 0.00
0.00 0.00 0.00 0.00 0.00 0.00 0.00 0.01 0.02 0.00 0.00 0.00 0.00 0.00 0.00 0.00 0.00 0.00 0.00 0.00 0.00 0.00 0.00 0.00 0.00 0.00 0.00 0.00 0.00 0.00 0.00 0.00 0.00 0.00 0.00 0.00 0.00 0.00 0.00 0.00 0.00 0.00 0.00 0.00
0.00 0.00 0.00 0.00 0.00 0.00 0.00 0.01 0.01 0.00 0.00 0.00 0.00 0.00 0.00 0.00 0.00 0.00 0.00 0.00 0.00 0.00 0.00 0.00 0.00 0.00 0.00 0.00 0.00 0.00 0.00 0.00 0.00 0.00 0.00 0.00 0.00 0.00 0.00 0.00 0.00 0.00 0.00 0.00
0.00 0.00 0.00 0.00 0.00 0.00 0.00 0.00 0.00 0.00 0.00 0.00 0.00 0.00 0.00 0.00 0.00 0.00 0.00 0.00 0.00 0.00 0.00 0.00 0.00 0.00 0.00 0.00 0.00 0.00 0.00 0.00 0.00 0.00 0.00 0.00 0.00 0.00 0.00 0.00 0.00 0.00 0.00 0.00
0.00 0.00 0.00 0.00 0.00 0.00 0.00 0.00 0.00 0.00 0.00 0.00 0.00 0.00 0.00 0.00 0.00 0.00 0.00 0.00 0.00 0.00 0.00 0.00 0.00 0.00 0.00 0.00 0.00 0.00 0.00 0.00 0.00 0.00 0.00 0.00 0.00 0.00 0.00 0.00 0.00 0.00 0.00 0.00
0.00 0.00 0.00 0.00 0.00 0.00 0.00 0.00 0.00 0.00 0.00 0.00 0.00 0.00 0.00 0.00 0.00 0.00 0.00 0.00 0.00 0.00 0.00 0.00 0.00 0.00 0.00 0.00 0.00 0.00 0.00 0.00 0.00 0.00 0.00 0.00 0.00 0.00 0.00 0.00 0.00 0.00 0.00 0.00
0.00 0.00 0.00 0.00 0.00 0.00 0.00 0.00 0.00 0.00 0.00 0.00 0.00 0.00 0.00 0.00 0.00 0.00 0.00 0.00 0.00 0.00 0.00 0.00 0.00 0.00 0.00 0.00 0.00 0.00 0.00 0.00 0.00 0.00 0.00 0.00 0.00 0.00 0.00 0.00 0.00 0.00 0.00 0.00
0.00 0.00 0.00 0.00 0.00 0.00 0.00 0.00 0.00 0.00 0.00 0.00 0.00 0.00 0.00 0.00 0.00 0.00 0.00 0.00 0.00 0.00 0.00 0.00 0.00 0.00 0.00 0.00 0.00 0.00 0.00 0.00 0.00 0.00 0.00 0.00 0.00 0.00 0.00 0.00 0.00 0.00 0.00 0.00
0.00 0.00 0.00 0.00 0.00 0.00 0.00 0.00 0.00 0.00 0.00 0.00 0.00 0.00 0.00 0.00 0.00 0.00 0.00 0.00 0.00 0.00 0.00 0.00 0.00 0.00 0.00 0.00 0.00 0.00 0.00 0.00 0.00 0.00 0.00 0.00 0.00 0.00 0.00 0.00 0.00 0.00 0.00 0.00
0.00 0.00 0.00 0.00 0.00 0.00 0.00 0.00 0.00 0.00 0.00 0.00 0.00 0.00 0.00 0.00 0.00 0.00 0.00 0.00 0.00 0.00 0.00 0.00 0.00 0.00 0.00 0.00 0.00 0.00 0.00 0.00 0.00 0.00 0.00 0.00 0.00 0.00 0.00 0.00 0.00 0.00 0.00 0.00
0.00 0.00 0.00 0.00 0.00 0.00 0.00 0.00 0.00 0.00 0.00 0.00 0.00 0.00 0.00 0.00 0.00 0.00 0.00 0.00 0.00 0.00 0.00 0.00 0.00 0.00 0.00 0.00 0.00 0.00 0.00 0.00 0.00 0.00 0.00 0.00 0.00 0.00 0.00 0.00 0.00 0.00 0.00 0.00
0.00 0.00 0.00 0.00 0.00 0.00 0.00 0.00 0.00 0.00 0.00 0.00 0.00 0.00 0.00 0.00 0.00 0.00 0.00 0.00 0.00 0.00 0.00 0.00 0.00 0.00 0.00 0.00 0.00 0.00 0.00 0.00 0.00 0.00 0.00 0.00 0.00 0.00 0.00 0.00 0.00 0.00 0.00 0.00
0.00 0.00 0.00 0.00 0.00 0.00 0.00 0.00 0.00 0.00 0.00 0.00 0.00 0.00 0.00 0.00 0.00 0.00 0.00 0.00 0.00 0.00 0.00 0.00 0.00 0.00 0.00 0.00 0.00 0.00 0.00 0.00 0.00 0.00 0.00 0.00 0.00 0.00 0.00 0.00 0.00 0.00 0.00 0.00
0.00 0.00 0.00 0.00 0.00 0.00 0.00 0.00 0.00 0.00 0.00 0.00 0.00 0.00 0.00 0.00 0.00 0.00 0.00 0.00 0.00 0.00 0.00 0.00 0.00 0.00 0.00 0.00 0.00 0.00 0.00 0.00 0.00 0.00 0.00 0.00 0.00 0.00 0.00 0.00 0.00 0.00 0.00 0.00
MSLP
1007.96 1006.99 1005.57 1003.95 1002.85 1001.79 1001.16 1000.75 1000.67 1000.10 999.97 999.48 999.11 999.00 998.79 998.91 999.14 999.16 999.10 999.46 999.82 1000.25 1000.77 1001.34 1002.44 1003.27 1003.69 1004.17 1005.07 1005.89 1006.57 1007.11 1007.24 1007.88 1008.38 1008.82 1009.51 1010.23 1010.77 1011.23 1011.66 1012.14 1012.54 1012.85
1007.55 1006.32 1005.27 1003.78 1002.23 1001.38 1000.73 1000.42 1000.10 1000.06 999.62 999.26 998.77 998.68 998.56 998.56 998.89 998.91 998.67 998.62 998.70 999.21 1000.16 1000.74 1001.43 1002.00 1003.00 1003.60 1004.19 1005.15 1005.73 1005.98 1006.77 1007.38 1007.86 1008.34 1009.00 1009.80 1010.46 1011.05 1011.44 1011.82 1012.09 1012.45
1006.91 1006.06 1005.13 1003.20 1000.51 1000.50 1000.07 1000.00 999.81 999.46 999.12 998.92 998.71 998.35 998.15 998.54 998.63 998.86 998.50 998.01 998.08 998.18 998.49 999.36 999.99 1000.95 1001.77 1002.63 1003.75 1004.31 1004.89 1005.63 1006.35 1007.07 1007.65 1008.20 1008.97 1009.83 1010.25 1010.70 1011.26 1011.58 1011.97 1012.35
1007.64 1006.33 1004.41 1001.91 1000.45 999.85 999.42 999.28 999.24 999.01 998.67 998.52 998.26 998.08 998.25 998.16 998.48 998.24 997.92 997.59 997.49 997.35 997.65 998.38 999.41 1000.29 1001.14 1002.18 1002.96 1003.81 1004.52 1005.21 1005.98 1006.84 1007.72 1008.45 1009.19 1009.84 1010.46 1011.06 1011.56 1012.09 1012.65 1013.13
1008.21 1006.83 1005.27 1002.21 1000.93 1000.13 999.40 998.91 998.74 998.68 998.30 998.28 998.26 998.04 997.70 998.01 998.43 998.37 998.29 997.72 997.34 997.06 997.58 998.13 999.15 1000.07 1000.88 1001.97 1002.88 1003.62 1004.48 1005.40 1006.10 1006.95 1007.91 1008.70 1009.43 1010.10 1010.87 1011.46 1012.09 1012.63 1013.08 1013.59
1007.92 1006.70 1004.78 1002.45 1001.29 1000.17 999.64 999.33 998.90 998.63 998.52 998.66 998.34 998.08 998.40 998.99 998.81 998.78 998.00 997.76 997.23 997.37 997.83 998.53 999.39 1000.16 1000.94 1001.99 1003.05 1004.06 1004.86 1005.74 1006.40 1007.17 1007.93 1008.85 1009.73 1010.45 1011.24 1011.93 1012.71 1013.37 1014.06 1014.62
1006.94 1005.83 1003.78 1001.69 1000.96 1000.40 1000.07 1000.06 999.35 999.33 999.14 999.00 998.90 998.65 999.17 999.49 999.42 999.01 998.47 998.69 998.45 998.10 998.31 999.11 999.92 1000.41 1001.19 1002.25 1003.32 1004.31 1005.39 1006.18 1006.94 1007.72 1008.41 1009.23 1010.05 1010.92 1011.78 1012.74 1013.61 1014.35 1014.88 1015.78
1006.25 1005.18 1003.71 1002.26 1001.27 1001.30 1000.78 1000.23 999.92 999.77 999.62 999.44 999.53 999.61 999.35 999.65 1000.33 1000.21 999.53 1000.13 1000.38 999.25 999.70 1000.24 1001.11 1001.01 1001.78 1002.84 1003.87 1004.88 1005.83 1006.81 1007.74 1008.46 1009.14 1009.90 1010.62 1011.69 1012.62 1013.30 1014.20 1015.16 1015.85 1016.88
1004.92 1003.83 1002.80 1002.37 1002.09 1001.38 1001.09 1000.79 999.94 999.87 1000.09 999.41 999.76 1000.37 1000.26 999.90 1000.83 1000.86 1000.82 1001.27 1001.72 1000.18 1000.75 1001.35 1001.94 1002.74 1003.15 1003.98 1004.66 1005.62 1006.50 1007.43 1008.25 1009.15 1010.09 1010.81 1011.40 1012.39 1013.30 1014.12 1014.86 1015.77 1016.55 1017.55
1004.60 1003.65 1003.08 1002.05 1002.22 1002.41 1002.15 1001.56 1000.77 1000.57 1000.13 1000.00 1000.11 1000.14 1000.20 1000.99 1001.25 1002.50 1002.44 1002.53 1002.12 1001.80 1002.28 1003.08 1003.35 1004.06 1004.81 1005.11 1005.62 1006.32 1007.07 1008.28 1009.25 1009.95 1011.14 1012.04 1012.63 1013.14 1013.86 1014.70 1015.39 1016.22 1017.12 1018.05
1004.92 1004.29 1003.67 1002.90 1002.90 1003.07 1002.09 1002.03 1001.28 1000.61 1000.53 1000.37 1000.35 1001.03 1001.64 1001.82 1003.38 1003.85 1003.37 1003.35 1003.61 1003.12 1003.71 1004.92 1004.90 1005.56 1006.00 1006.54 1007.03 1007.60 1008.17 1009.69 1010.61 1011.54 1012.33 1013.30 1014.04 1014.58 1014.92 1015.47 1015.65 1016.54 1017.60 1018.38
1005.85 1006.01 1005.85 1004.89 1004.38 1004.36 1003.49 1002.45 1001.70 1001.22 1001.32 1001.78 1001.42 1001.82 1002.64 1003.93 1004.52 1004.79 1005.13 1005.16 1005.42 1005.30 1005.86 1006.73 1006.97 1007.04 1007.27 1007.70 1008.06 1008.73 1009.49 1010.70 1012.17 1012.81 1013.64 1014.31 1015.10 1015.90 1016.57 1016.86 1017.21 1017.66 1018.29 1018.73
1007.43 1007.18 1006.85 1006.01 1005.64 1005.55 1004.64 1004.16 1003.92 1003.63 1003.31 1003.64 1003.63 1003.68 1004.32 1005.05 1006.30 1006.57 1006.81 1007.24 1007.52 1008.03 1007.04 1008.28 1008.47 1008.60 1008.92 1009.46 1009.90 1010.16 1010.85 1011.91 1012.93 1014.06 1014.71 1015.16 1015.94 1016.54 1017.36 1018.46 1018.64 1019.05 1019.52 1019.88
1008.38 1007.84 1006.92 1006.90 1006.71 1006.51 1005.89 1005.60 1005.78 1005.80 1005.84 1005.86 1006.18 1006.12 1006.65 1006.81 1007.61 1008.47 1008.83 1008.95 1009.05 1009.05 1009.85 1010.19 1009.18 1009.97 1010.34 1010.84 1011.00 1011.24 1012.37 1013.16 1013.90 1015.04 1015.79 1016.27 1016.71 1017.27 1017.91 1018.55 1019.34 1020.22 1020.84 1021.01
1009.33 1009.14 1008.54 1008.09 1007.92 1007.77 1007.12 1006.63 1006.80 1007.49 1008.22 1007.37 1008.39 1008.08 1008.18 1008.57 1009.31 1010.22 1010.43 1010.60 1010.91 1011.11 1011.30 1011.22 1011.64 1012.20 1012.75 1012.13 1012.44 1013.14 1014.07 1014.39 1015.45 1016.59 1016.93 1017.23 1017.62 1018.26 1018.94 1019.51 1020.15 1020.90 1021.67 1022.13
1010.10 1009.45 1009.22 1009.11 1009.21 1009.03 1008.69 1008.38 1008.37 1009.13 1009.71 1009.60 1009.64 1010.19 1010.21 1010.61 1011.34 1011.97 1012.24 1012.35 1012.24 1012.99 1013.48 1013.68 1014.22 1014.62 1014.47 1014.06 1014.30 1015.02 1015.80 1016.31 1016.84 1017.57 1018.08 1018.47 1018.91 1019.46 1019.99 1020.62 1021.33 1021.93 1022.51 1023.08
1010.97 1010.21 1010.11 1010.25 1010.30 1010.39 1010.33 1010.16 1010.32 1010.70 1010.99 1011.14 1011.94 1011.34 1012.19 1012.32 1012.98 1013.68 1014.19 1014.45 1014.62 1015.09 1015.27 1015.48 1016.07 1016.25 1015.83 1015.99 1016.09 1016.93 1017.74 1018.30 1018.58 1018.90 1019.34 1019.84 1020.33 1020.71 1021.29 1021.91 1022.52 1023.17 1023.82 1024.45
1012.39 1011.91 1011.62 1011.46 1011.37 1011.54 1011.62 1011.75 1011.94 1012.38 1012.25 1013.32 1013.70 1013.21 1013.79 1014.28 1014.82 1015.56 1016.16 1016.29 1016.36 1016.68 1017.17 1017.48 1017.51 1017.37 1017.47 1017.77 1018.04 1018.67 1019.12 1019.58 1020.11 1020.55 1020.95 1021.30 1021.76 1022.26 1022.80 1023.27 1023.71 1024.13 1024.67 1025.32
1013.38 1012.93 1012.67 1012.47 1012.38 1012.89 1012.89 1013.26 1013.75 1013.70 1014.23 1014.69 1014.54 1014.92 1015.28 1015.93 1016.59 1017.20 1017.38 1017.48 1018.14 1018.54 1019.50 1019.22 1019.20 1019.22 1019.33 1019.66 1019.83 1020.27 1020.67 1021.07 1021.65 1022.19 1022.63 1023.08 1023.42 1023.80 1024.26 1024.64 1025.00 1025.30 1025.61 1025.89
1014.35 1014.28 1014.20 1014.07 1013.99 1014.18 1014.27 1014.68 1015.39 1015.25 1015.77 1015.83 1015.99 1016.54 1016.99 1017.82 1018.24 1018.48 1018.79 1019.37 1020.43 1020.88 1021.12 1020.93 1020.78 1021.06 1021.32 1021.52 1021.55 1021.89 1022.31 1022.82 1023.35 1023.93 1024.27 1024.60 1024.98 1025.29 1025.56 1025.93 1026.17 1026.48 1026.71 1027.02
1015.59 1015.59 1015.59 1015.58 1015.47 1015.89 1015.76 1015.98 1016.66 1016.82 1017.30 1017.73 1017.60 1018.12 1018.84 1019.45 1019.82 1020.10 1020.36 1020.99 1022.49 1022.75 1022.60 1022.34 1022.33 1022.55 1022.83 1023.00 1023.23 1023.68 1024.14 1024.67 1025.10 1025.41 1025.75 1026.04 1026.25 1026.49 1026.80 1027.16 1027.46 1027.69 1027.89 1028.05
1016.79 1016.83 1016.90 1016.95 1017.07 1017.22 1017.42 1017.82 1018.36 1018.98 1019.33 1019.37 1019.59 1019.91 1020.49 1021.19 1021.61 1021.75 1022.50 1023.41 1024.33 1024.05 1023.75 1023.87 1024.02 1024.14 1024.33 1024.47 1024.83 1025.27 1025.75 1026.13 1026.47 1026.77 1026.99 1027.22 1027.40 1027.70 1028.05 1028.34 1028.53 1028.74 1028.86 1028.84
1018.04 1018.05 1018.30 1018.51 1018.61 1018.54 1018.95 1019.62 1020.01 1020.34 1020.64 1020.91 1021.13 1021.66 1022.20 1022.84 1023.38 1023.71 1024.26 1025.11 1025.00 1025.27 1025.44 1025.76 1025.89 1025.75 1025.73 1025.97 1026.36 1026.73 1027.13 1027.44 1027.74 1028.03 1028.22 1028.45 1028.66 1028.93 1029.14 1029.26 1029.37 1029.37 1029.26 1029.22
1019.19 1019.32 1019.55 1019.70 1019.66 1019.64 1020.05 1020.89 1021.35 1021.85 1022.10 1022.56 1022.99 1023.47 1023.85 1024.53 1025.13 1025.61 1026.01 1026.33 1026.44 1026.63 1026.94 1027.23 1027.36 1027.46 1027.42 1027.55 1027.73 1028.00 1028.33 1028.57 1028.79 1028.95 1029.19 1029.44 1029.66 1029.86 1029.92 1029.90 1029.79 1029.79 1029.81 1029.80
1020.46 1020.60 1020.75 1020.82 1020.86 1021.44 1021.97 1022.46 1022.84 1023.26 1023.63 1024.06 1024.49 1025.02 1025.36 1025.86 1026.06 1027.07 1027.33 1027.69 1027.87 1028.07 1028.40 1028.69 1028.59 1028.55 1028.81 1029.01 1029.06 1029.08 1029.18 1029.39 1029.59 1029.70 1029.94 1030.10 1030.34 1030.44 1030.43 1030.42 1030.44 1030.39 1030.13 1029.98
1021.76 1022.00 1022.25 1022.38 1022.56 1022.87 1023.24 1023.59 1023.99 1024.71 1025.09 1025.42 1026.26 1026.84 1027.14 1027.48 1027.74 1028.11 1028.65 1029.06 1029.23 1029.46 1029.66 1029.78 1029.67 1029.50 1029.72 1029.89 1029.96 1030.06 1030.05 1030.13 1030.18 1030.37 1030.58 1030.68 1030.72 1030.68 1030.66 1030.57 1030.45 1030.32 1030.25 1030.10
1022.88 1023.07 1023.39 1023.83 1024.19 1024.41 1024.61 1024.91 1025.26 1025.90 1026.36 1026.79 1027.40 1028.05 1028.43 1028.72 1028.98 1029.37 1029.80 1030.09 1030.31 1030.46 1030.57 1030.61 1030.49 1030.37 1030.41 1030.59 1030.67 1030.80 1030.72 1030.72 1031.10 1030.81 1030.93 1030.84 1030.74 1030.62 1030.63 1030.49 1030.39 1030.37 1030.27 1030.03
Thickness
5521 5533 5546 5562 5575 5590 5594 5604 5596 5613 5612 5627 5643 5647 5653 5656 5658 5661 5668 5666 5667 5670 5669 5665 5658 5652 5651 5649 5642 5636 5631 5627 5627 5622 5618 5614 5610 5603 5599 5597 5593 5590 5587 5584
5520 5539 5544 5552 5574 5584 5593 5598 5600 5599 5605 5624 5641 5646 5647 5652 5651 5657 5663 5668 5672 5672 5667 5664 5660 5657 5650 5647 5642 5634 5630 5629 5624 5620 5616 5612 5606 5600 5595 5591 5588 5586 5584 5581
5530 5533 5526 5543 5577 5581 5591 5595 5600 5596 5612 5621 5626 5634 5642 5642 5642 5648 5658 5667 5669 5674 5677 5672 5669 5660 5655 5650 5640 5635 5631 5625 5620 5615 5611 5607 5599 5592 5590 5587 5581 5579 5575 5572
5510 5515 5532 5561 5576 5587 5589 5598 5600 5604 5610 5616 5623 5630 5632 5642 5641 5647 5654 5662 5670 5675 5676 5675 5669 5661 5655 5646 5640 5633 5628 5623 5617 5610 5604 5595 5589 5584 5578 5575 5571 5566 5561 5555
5499 5514 5512 5551 5565 5573 5580 5591 5600 5600 5607 5610 5615 5618 5630 5634 5631 5635 5641 5653 5663 5671 5670 5667 5660 5653 5648 5641 5633 5627 5620 5612 5606 5599 5592 5586 5580 5573 5567 5563 5557 5552 5547 5542
5494 5510 5517 5535 5556 5570 5579 5575 5591 5590 5594 5597 5605 5604 5611 5605 5618 5625 5638 5645 5655 5659 5657 5654 5649 5645 5639 5631 5623 5614 5608 5600 5596 5590 5583 5575 5567 5562 5555 5549 5541 5535 5528 5521
5498 5507 5529 5548 5556 5564 5558 5566 5579 5581 5585 5589 5592 5602 5603 5602 5609 5620 5627 5630 5635 5644 5646 5642 5637 5635 5630 5622 5613 5605 5595 5588 5582 5574 5568 5562 5555 5548 5540 5530 5522 5514 5507 5499
5495 5503 5517 5541 5552 5548 5557 5562 5569 5573 5576 5579 5582 5582 5592 5594 5592 5601 5611 5606 5611 5626 5625 5622 5618 5622 5618 5608 5599 5590 5582 5574 5565 5559 5554 5547 5541 5531 5522 5515 5505 5495 5487 5475
5512 5520 5531 5534 5540 5546 5549 5552 5565 5566 5567 5576 5574 5570 5579 5586 5580 5582 5590 5590 5590 5608 5607 5604 5602 5596 5593 5586 5582 5574 5567 5559 5552 5544 5536 5530 5524 5515 5506 5498 5490 5479 5469 5457
5512 5521 5521 5535 5535 5535 5539 5547 5557 5558 5562 5568 5567 5571 5573 5571 5569 5560 5566 5570 5578 5584 5581 5576 5577 5573 5568 5566 5563 5558 5551 5541 5532 5526 5515 5507 5502 5496 5489 5480 5471 5462 5451 5437
5503 5513 5517 5527 5526 5526 5536 5536 5548 5557 5558 5563 5565 5560 5558 5557 5546 5543 5549 5555 5558 5564 5559 5551 5553 5550 5548 5544 5541 5535 5530 5516 5509 5500 5492 5482 5475 5470 5465 5457 5453 5443 5431 5420
5502 5487 5489 5502 5507 5505 5514 5528 5541 5549 5550 5543 5554 5549 5541 5529 5528 5528 5527 5529 5530 5533 5529 5523 5524 5525 5523 5519 5516 5512 5505 5495 5483 5477 5468 5462 5454 5444 5436 5430 5424 5417 5408 5402
5467 5467 5470 5481 5489 5488 5500 5502 5505 5510 5519 5518 5519 5522 5517 5511 5502 5502 5504 5503 5502 5499 5510 5496 5497 5497 5496 5494 5490 5487 5480 5471 5465 5454 5445 5440 5431 5423 5413 5401 5396 5389 5381 5374
5450 5456 5473 5470 5469 5474 5484 5485 5483 5483 5485 5488 5487 5490 5487 5487 5482 5477 5476 5478 5481 5482 5477 5473 5484 5478 5474 5471 5468 5466 5454 5448 5443 5431 5421 5415 5410 5402 5395 5386 5375 5364 5354 5348
5434 5439 5448 5452 5452 5454 5466 5473 5470 5464 5459 5467 5462 5465 5469 5466 5461 5454 5454 5454 5453 5453 5454 5457 5454 5450 5444 5447 5443 5436 5427 5423 5411 5400 5395 5391 5386 5378 5370 5362 5352 5342 5330 5320
5421 5431 5435 5436 5431 5433 5441 5447 5449 5442 5440 5443 5445 5441 5443 5441 5435 5431 5430 5431 5433 5426 5423 5423 5422 5418 5416 5416 5413 5406 5397 5392 5385 5376 5370 5365 5359 5352 5345 5335 5325 5315 5306 5296
5404 5416 5416 5416 5416 5413 5416 5421 5422 5421 5422 5423 5418 5425 5420 5420 5415 5409 5406 5404 5402 5399 5398 5397 5393 5388 5389 5385 5382 5374 5366 5360 5357 5353 5347 5340 5332 5326 5317 5308 5298 5287 5277 5267
5382 5388 5392 5396 5398 5398 5399 5400 5400 5399 5403 5395 5393 5399 5395 5392 5390 5385 5381 5381 5380 5376 5372 5369 5368 5367 5365 5360 5356 5349 5343 5338 5332 5326 5320 5313 5305 5297 5288 5280 5271 5263 5253 5242
5364 5369 5373 5377 5380 5377 5379 5378 5376 5379 5377 5375 5377 5376 5374 5369 5365 5362 5362 5361 5356 5353 5344 5344 5342 5341 5338 5333 5330 5325 5319 5313 5306 5298 5291 5283 5276 5269 5260 5252 5243 5236 5227 5218
5345 5348 5350 5353 5357 5358 5358 5357 5352 5356 5355 5357 5356 5352 5350 5344 5342 5341 5339 5334 5326 5322 5318 5318 5317 5313 5309 5305 5303 5298 5292 5285 5277 5268 5261 5255 5247 5239 5232 5224 5216 5206 5198 5188
5321 5325 5328 5332 5337 5336 5339 5338 5335 5335 5333 5332 5335 5330 5325 5321 5318 5316 5315 5309 5296 5292 5291 5292 5291 5288 5283 5279 5274 5268 5262 5253 5246 5240 5233 5226 5219 5212 5204 5195 5186 5178 5169 5159
5302 5303 5303 5309 5316 5318 5318 5316 5313 5310 5308 5309 5308 5306 5302 5295 5291 5289 5282 5275 5265 5267 5269 5266 5263 5260 5256 5252 5247 5240 5233 5226 5220 5214 5207 5201 5194 5186 5176 5168 5159 5149 5139 5129
5289 5290 5291 5293 5297 5299 5297 5294 5292 5290 5288 5287 5285 5281 5276 5272 5267 5263 5257 5249 5249 5245 5242 5238 5234 5233 5230 5225 5219 5213 5207 5201 5195 5188 5181 5174 5167 5158 5149 5141 5131 5122 5113 5103
5279 5280 5280 5281 5283 5284 5280 5274 5270 5267 5265 5263 5259 5254 5251 5243 5238 5234 5230 5226 5223 5220 5216 5212 5209 5206 5204 5200 5195 5190 5184 5177 5171 5164 5156 5148 5140 5130 5122 5113 5106 5097 5088 5079
5265 5266 5265 5265 5265 5260 5255 5251 5248 5244 5241 5237 5234 5229 5225 5220 5219 5210 5207 5202 5200 5197 5193 5189 5188 5185 5179 5174 5170 5166 5161 5154 5147 5141 5132 5123 5114 5105 5098 5090 5083 5077 5069 5061
5249 5246 5244 5243 5242 5239 5236 5233 5229 5223 5220 5216 5208 5203 5200 5196 5194 5190 5184 5179 5177 5173 5170 5167 5166 5164 5157 5151 5146 5141 5137 5131 5125 5117 5108 5100 5093 5087 5081 5074 5068 5060 5051 5043
5232 5230 5227 5223 5219 5216 5215 5213 5210 5205 5201 5196 5191 5185 5181 5177 5174 5169 5164 5159 5155 5152 5149 5145 5143 5141 5136 5130 5124 5119 5114 5109 5102 5096 5089 5084 5079 5074 5067 5060 5053 5045 5038 5033